Location: Newark
(48.5667°N, 12.8167°E)
Time: 01:30:13
(UTC+00:00)

OTV 5 (USA 277) - Visible Passes

Search period start: 18 October 2019 00:00
Search period end: 28 October 2019 00:00
Orbit: 310 x 324 km, 54.5° (Epoch: 08 October)

Date Brightness Start Highest point End Pass type
(mag) Time Alt. Az. Time Alt. Az. Time Alt. Az.
18 Oct ? 03:05:07 18° E 03:05:07 18° E 03:06:00 10° E visible
18 Oct ? 04:36:01 17° W 04:37:40 32° SW 04:40:10 10° SSE visible
19 Oct ? 03:19:36 22° ESE 03:19:36 22° ESE 03:20:46 10° ESE visible
19 Oct ? 04:50:31 11° W 04:52:01 15° SW 04:53:40 10° S visible
20 Oct ? 03:34:13 19° SE 03:34:13 19° SE 03:35:14 10° SE visible
21 Oct ? 03:48:58 11° S 03:48:58 11° S 03:49:10 10° S visible
